Regional Weather Roundup
Issued by NWS

Home | Current Version | Previous Version | Text Only | Print | Product List | Glossary On
Versions: 1 2 3 4 5 6 7 8 9 10 11 12 13 14 15 16 17 18 19 20 21 22 23 24 25 26 27 28 29 30 31 32 33 34 35 36 37 38 39 40 41 42 43 44 45 46 47 48 49 50
000
ASUS45 KABQ 222210
RWRNM
WEATHER ROUNDUP FOR NEW MEXICO
NATIONAL WEATHER SERVICE ALBUQUERQUE NM
300 PM MST MON DEC 22 2014

NOTE: "FAIR" MEANS FEW OR NO CLOUDS BELOW 12,000 FEET AGL WITH NO
       SIGNIFICANT WEATHER OR OBSTRUCTIONS TO VISION.

      THIS PRODUCT IS RELEASED AS TWO VERSIONS.  ONE VERSION NEAR
      THE TOP OF THE HOUR CONTAINING PRELIMINARY DATA FROM ALBUQUERQUE
      AND OTHER STATIONS.  A FINAL VERSION WITH ADDITIONAL DATA IS
      ISSUED ABOUT 10 MINUTES AFTER THE HOUR.

NMZ501-503-504-510>518-222300-
NORTHWEST PLATEAU/NORTHCENTRAL MOUNTAINS

CITY           SKY/WX    TMP DP  RH WIND       PRES   REMARKS
FARMINGTON     SUNNY     42  37  82 W24G30    29.77S
LOS ALAMOS     MOSUNNY   46  25  44 NW21G40   29.67F
SANTA FE       PTSUNNY   50  30  46 W24G38    29.63F
TAOS           CLOUDY    34  28  80 N14G30    29.66R THUNDER VSB 3/4
ANGEL FIRE     SNOW      31  28  92 N14G21    29.65R VSB 1/2 WCI  20

$$
NMZ402-403-502-505>509-222300-
WESTCENTRAL MOUNTAINS/SOUTHWEST MOUNTAINS

CITY           SKY/WX    TMP DP  RH WIND       PRES   REMARKS
GALLUP         MOSUNNY   52  32  46 W24G32    29.84F
GRANTS         MOSUNNY   54  27  35 NW31G38   29.79F
SILVER CITY    SUNNY     55  32  41 NW25G32   29.84F

$$
NMZ407-409-411-412-222300-
SOUTHERN DESERTS

CITY           SKY/WX    TMP DP  RH WIND       PRES   REMARKS
LORDSBURG      FAIR      61  36  39 W20G25    29.83F
DEMING         SUNNY     60  35  39 W26G33    29.78F
LAS CRUCES     SUNNY     63  33  32 W24G36    29.74F
HOLLOMAN AFB   MOSUNNY   65  32  28 SW13      29.67F
ALAMOGORDO     MOSUNNY   64  32  29 SW5       29.70F
T OR C         SUNNY     66  30  26 W10       29.70F

$$
NMZ519>523-222300-
CENTRAL VALLEYS/CENTRAL HIGHLANDS

CITY           SKY/WX    TMP DP  RH WIND       PRES   REMARKS
ALBUQUERQUE    CLOUDY    57  30  35 W41G55    29.71R
DOUBLE EAGLE   PTSUNNY   48  34  57 W21G47    29.74R
MORIARTY ARPT  DRIZZLE   50  31  48 W17G28    29.70F
CLINES CORNERS LGT RAIN  43  31  62 NW44G61   29.68R
BELEN          FAIR      61  30  30 W25G32    29.72S
SOCORRO        PTSUNNY   66  29  25 W15G21    29.72S

$$
NMZ524>526-539-540-222300-
SOUTHCENTRAL MOUNTAINS

CITY           SKY/WX    TMP DP  RH WIND       PRES   REMARKS
RUIDOSO        SUNNY     54  27  35 NW21G40   29.73R

$$
NMZ527>531-222300-
NORTHEAST HIGHLANDS/NORTHEAST PLAINS

CITY           SKY/WX    TMP DP  RH WIND       PRES   REMARKS
LAS VEGAS      CLOUDY    47  27  45 W22G30    29.60F
RATON          SNOW      30  28  92 E6        29.69R VSB 1/4 WCI  24
CLAYTON        LGT SNOW  33  32  96 N8        29.70R FOG     WCI  26

$$
NMZ532>537-222300-
EASTCENTRAL PLAINS

CITY           SKY/WX    TMP DP  RH WIND       PRES   REMARKS
TUCUMCARI      CLOUDY    48  20  32 NE15      29.69R
CANNON AFB     MOSUNNY   50  25  36 E12       29.67S
CLOVIS AIRPORT PTSUNNY   48  25  40 E9        29.68S

$$
NMZ028-029-538-222300-
SOUTHEAST PLAINS

CITY           SKY/WX    TMP DP  RH WIND       PRES   REMARKS
ROSWELL        MOSUNNY   70  27  20 W10G21    29.59F
ARTESIA        SUNNY     70  32  24 SW18      29.60F
CARLSBAD       SUNNY     71  30  21 W20G29    29.60F
HOBBS          SUNNY     59  32  36 CALM      29.64F


$$



USA.gov is the U.S. government's official web portal to all federal, state and local government web resources and services.